Stündliche Wetter Ablon-sur-Seine

Heute, 17 Juni, Donnerstag

Zeit Temperatur Niederschläge Wind Luftdruck Luftfeuchtigkeit
00:00 +20°C° 0.1 mm 2 m/S 750 mmHg 85%
01:00 +20°C° 0.2 mm 2 m/S 750 mmHg 87%
02:00 +20°C° 0.2 mm 2 m/S 750 mmHg 90%
03:00 +20°C° 0.2 mm 2 m/S 750 mmHg 93%
04:00 +20°C° 0 mm 2 m/S 750 mmHg 91%
05:00 +20°C° 0 mm 3 m/S 751 mmHg 90%
06:00 +21°C° 0 mm 3 m/S 751 mmHg 89%
07:00 +22°C° 0 mm 3 m/S 751 mmHg 80%
08:00 +25°C° 0 mm 3 m/S 751 mmHg 70%
09:00 +26°C° 0 mm 4 m/S 752 mmHg 61%
10:00 +28°C° 0 mm 3 m/S 751 mmHg 57%
11:00 +29°C° 0 mm 3 m/S 751 mmHg 53%
12:00 +30°C° 0 mm 3 m/S 751 mmHg 49%
13:00 +31°C° 0 mm 3 m/S 751 mmHg 47%
14:00 +31°C° 0 mm 3 m/S 751 mmHg 46%
15:00 +32°C° 0 mm 2 m/S 750 mmHg 44%
16:00 +29°C° 3 mm 3 m/S 750 mmHg 60%
17:00 +25°C° 3 mm 3 m/S 750 mmHg 76%
18:00 +21°C° 3 mm 3 m/S 750 mmHg 93%
19:00 +21°C° 4.9 mm 3 m/S 751 mmHg 93%
20:00 +20°C° 4.9 mm 2 m/S 751 mmHg 94%
21:00 +21°C° 4.9 mm 1 m/S 752 mmHg 94%
22:00 +21°C° 0 mm 1 m/S 752 mmHg 95%
23:00 +20°C° 0 mm 1 m/S 751 mmHg 95%

Morgen, 18 Juni, Freitag

Zeit Temperatur Niederschläge Wind Luftdruck Luftfeuchtigkeit
00:00 +20°C° 0 mm 1 m/S 751 mmHg 96%
01:00 +20°C° 0 mm 1 m/S 751 mmHg 96%
02:00 +20°C° 0 mm 1 m/S 751 mmHg 96%
03:00 +18°C° 0 mm 2 m/S 751 mmHg 96%
04:00 +19°C° 0.1 mm 2 m/S 751 mmHg 94%
05:00 +19°C° 0.1 mm 2 m/S 751 mmHg 93%
06:00 +20°C° 0.1 mm 2 m/S 751 mmHg 91%
07:00 +21°C° 0.3 mm 3 m/S 751 mmHg 87%
08:00 +22°C° 0.3 mm 3 m/S 751 mmHg 84%
09:00 +22°C° 0.3 mm 4 m/S 751 mmHg 80%
10:00 +23°C° 0.4 mm 4 m/S 751 mmHg 78%
11:00 +23°C° 0.4 mm 5 m/S 752 mmHg 76%
12:00 +25°C° 0.4 mm 5 m/S 752 mmHg 74%
13:00 +23°C° 0.2 mm 5 m/S 752 mmHg 77%
14:00 +22°C° 0.2 mm 5 m/S 752 mmHg 80%
15:00 +22°C° 0.2 mm 5 m/S 752 mmHg 83%
16:00 +21°C° 0.1 mm 5 m/S 753 mmHg 84%
17:00 +21°C° 0.1 mm 5 m/S 753 mmHg 84%
18:00 +20°C° 0.1 mm 4 m/S 753 mmHg 85%
19:00 +19°C° 0 mm 4 m/S 754 mmHg 87%
20:00 +18°C° 0 mm 4 m/S 754 mmHg 88%
21:00 +17°C° 0 mm 3 m/S 755 mmHg 89%
22:00 +17°C° 0 mm 3 m/S 755 mmHg 87%
23:00 +16°C° 0 mm 2 m/S 755 mmHg 86%

übermorgen, 19 Juni, Samstag

Zeit Temperatur Niederschläge Wind Luftdruck Luftfeuchtigkeit
00:00 +16°C° 0 mm 2 m/S 756 mmHg 84%
01:00 +16°C° 0 mm 2 m/S 756 mmHg 83%
02:00 +16°C° 0 mm 1 m/S 756 mmHg 83%
03:00 +16°C° 0 mm 0 m/S 756 mmHg 82%
04:00 +18°C° 0 mm 1 m/S 756 mmHg 81%
05:00 +18°C° 0 mm 1 m/S 756 mmHg 80%
06:00 +19°C° 0 mm 1 m/S 756 mmHg 79%
07:00 +20°C° 0 mm 1 m/S 756 mmHg 75%
08:00 +20°C° 0 mm 2 m/S 755 mmHg 70%
09:00 +21°C° 0 mm 2 m/S 755 mmHg 66%
10:00 +24°C° 0 mm 3 m/S 755 mmHg 63%
11:00 +25°C° 0 mm 3 m/S 754 mmHg 59%
12:00 +26°C° 0 mm 3 m/S 754 mmHg 55%
13:00 +27°C° 0 mm 4 m/S 753 mmHg 55%
14:00 +27°C° 0 mm 4 m/S 752 mmHg 55%
15:00 +28°C° 0 mm 5 m/S 752 mmHg 55%
16:00 +27°C° 0.1 mm 5 m/S 751 mmHg 61%
17:00 +26°C° 0.1 mm 5 m/S 750 mmHg 68%
18:00 +24°C° 0.1 mm 6 m/S 749 mmHg 74%
19:00 +23°C° 2.6 mm 6 m/S 748 mmHg 81%
20:00 +22°C° 2.6 mm 6 m/S 746 mmHg 87%
21:00 +21°C° 2.6 mm 6 m/S 745 mmHg 93%
22:00 +20°C° 6 mm 5 m/S 746 mmHg 94%
23:00 +19°C° 6 mm 5 m/S 747 mmHg 95%

20 Juni, Sonntag

Zeit Temperatur Niederschläge Wind Luftdruck Luftfeuchtigkeit
00:00 +18°C° 6 mm 4 m/S 748 mmHg 96%
01:00 +18°C° 0 mm 4 m/S 748 mmHg 96%
02:00 +18°C° 0 mm 4 m/S 748 mmHg 95%
03:00 +18°C° 0 mm 4 m/S 748 mmHg 95%
04:00 +18°C° 0 mm 4 m/S 749 mmHg 93%
05:00 +18°C° 0 mm 4 m/S 749 mmHg 91%
06:00 +19°C° 0 mm 3 m/S 749 mmHg 90%
07:00 +20°C° 0 mm 4 m/S 749 mmHg 83%
08:00 +21°C° 0 mm 4 m/S 749 mmHg 76%
09:00 +22°C° 0 mm 4 m/S 749 mmHg 69%
10:00 +23°C° 0.1 mm 4 m/S 749 mmHg 66%
11:00 +25°C° 0.1 mm 4 m/S 749 mmHg 63%
12:00 +26°C° 0.1 mm 4 m/S 748 mmHg 60%
13:00 +26°C° 0.5 mm 4 m/S 748 mmHg 60%
14:00 +26°C° 0.5 mm 4 m/S 748 mmHg 59%
15:00 +26°C° 0.5 mm 3 m/S 748 mmHg 59%
16:00 +25°C° 0.7 mm 3 m/S 748 mmHg 67%
17:00 +24°C° 0.7 mm 2 m/S 748 mmHg 76%
18:00 +21°C° 0.7 mm 2 m/S 748 mmHg 84%
19:00 +20°C° 0.2 mm 2 m/S 748 mmHg 86%
20:00 +19°C° 0.2 mm 2 m/S 749 mmHg 88%
21:00 +18°C° 0.2 mm 2 m/S 749 mmHg 91%
22:00 +19°C° 0 mm 1 m/S 749 mmHg 91%
23:00 +18°C° 0 mm 1 m/S 749 mmHg 91%

21 Juni, Montag

Zeit Temperatur Niederschläge Wind Luftdruck Luftfeuchtigkeit
00:00 +18°C° 0 mm 1 m/S 749 mmHg 91%
01:00 +18°C° 0.1 mm 1 m/S 749 mmHg 92%
02:00 +18°C° 0.1 mm 1 m/S 749 mmHg 92%
03:00 +16°C° 0.1 mm 1 m/S 748 mmHg 92%
04:00 +18°C° 0.1 mm 1 m/S 748 mmHg 92%
05:00 +18°C° 0.1 mm 1 m/S 748 mmHg 91%
06:00 +19°C° 0.1 mm 1 m/S 748 mmHg 91%
07:00 +19°C° 0.3 mm 2 m/S 748 mmHg 86%
08:00 +21°C° 0.3 mm 3 m/S 748 mmHg 82%
09:00 +22°C° 0.3 mm 3 m/S 748 mmHg 78%
10:00 +23°C° 0.1 mm 4 m/S 748 mmHg 68%
11:00 +25°C° 0.1 mm 5 m/S 748 mmHg 58%
12:00 +27°C° 0.1 mm 6 m/S 748 mmHg 49%
13:00 +26°C° 0 mm 6 m/S 748 mmHg 49%
14:00 +26°C° 0 mm 5 m/S 749 mmHg 49%
15:00 +26°C° 0 mm 5 m/S 749 mmHg 49%
16:00 +25°C° 0 mm 5 m/S 749 mmHg 54%
17:00 +23°C° 0 mm 5 m/S 749 mmHg 59%
18:00 +22°C° 0 mm 5 m/S 749 mmHg 65%
19:00 +20°C° 0 mm 4 m/S 750 mmHg 69%
20:00 +19°C° 0 mm 3 m/S 750 mmHg 74%
21:00 +18°C° 0 mm 2 m/S 750 mmHg 79%
22:00 +17°C° 0 mm 3 m/S 750 mmHg 78%
23:00 +17°C° 0 mm 4 m/S 750 mmHg 77%

22 Juni, Dienstag

Zeit Temperatur Niederschläge Wind Luftdruck Luftfeuchtigkeit
00:00 +16°C° 0 mm 5 m/S 750 mmHg 75%
01:00 +15°C° 0 mm 5 m/S 750 mmHg 78%
02:00 +15°C° 0 mm 5 m/S 750 mmHg 80%
03:00 +15°C° 0 mm 5 m/S 750 mmHg 82%
04:00 +15°C° 0 mm 5 m/S 750 mmHg 82%
05:00 +15°C° 0 mm 5 m/S 751 mmHg 82%
06:00 +16°C° 0 mm 5 m/S 751 mmHg 82%
07:00 +17°C° 0.1 mm 5 m/S 751 mmHg 79%
08:00 +19°C° 0.1 mm 6 m/S 751 mmHg 76%
09:00 +20°C° 0.1 mm 6 m/S 751 mmHg 72%
10:00 +20°C° 0.4 mm 6 m/S 752 mmHg 70%
11:00 +21°C° 0.4 mm 6 m/S 752 mmHg 67%
12:00 +21°C° 0.4 mm 6 m/S 752 mmHg 65%
13:00 +22°C° 0 mm 6 m/S 752 mmHg 61%
14:00 +22°C° 0 mm 6 m/S 752 mmHg 58%
15:00 +22°C° 0 mm 6 m/S 752 mmHg 55%
16:00 +22°C° 0.1 mm 5 m/S 753 mmHg 60%
17:00 +21°C° 0.1 mm 5 m/S 753 mmHg 65%
18:00 +20°C° 0.1 mm 4 m/S 753 mmHg 71%
19:00 +19°C° 0.2 mm 3 m/S 754 mmHg 77%
20:00 +17°C° 0.2 mm 3 m/S 754 mmHg 84%
21:00 +16°C° 0.2 mm 2 m/S 755 mmHg 91%
22:00 +15°C° 0 mm 2 m/S 755 mmHg 92%
23:00 +15°C° 0 mm 2 m/S 755 mmHg 93%
Mehr zeigen

Wir brauchen deine Erlaubnis

Meteoprog und unser Service Anbieter werden persönliche Daten aufbewahren, so wie Cookies, Geräte Bezeichnung oder ähnliche Technologien von deinem Gerät und Prozess, so wie Persönliche Daten Inhalte und Werbungen, genauso wie social Media und den Verkehr zu analysieren.

  • Aufbewahrung und/oder Zugang zu deiner Geräte Informationen.

    Cookies, Geräte Bezeichnung oder andere Informationen, können aufbewahrt oder Zugang zu deinem Gerät erhalten, für den Grund, der oben angegeben wird.

  • Personalisierte Werbung und Inhalte, Messungen, Einblick in das Publikum und Produkt Entwicklung.

    Werbungen und Inhalte können personalisiert werden, basierend auf ein Profil. Mehr Daten können besser personalisierte Werbungen und Inhalte hinzufügen. Werbung und Inhalte können gezeigt und gemessen werden. Einblicke über das Publikum, welche die Werbung gesehen haben und den Inhalt, können abgeleitet werden. So wie Daten können genutzt werden, um es zu verbessern oder die Benutzer Erfahrung zu verbessern das System und die Software.

Wenn du “Ich stimme zu” klickst, erlaubst du uns, die Cookies zu benutzen die Geräte Bezeichnung, den Web oder ähnliche Technologien zu benutzen. Deine Settings, können in deinem Gerät bei deinem Browser geändert werden.

Für den bestimmten Zweck, berechtigten Interessen beruhen darauf, mehr als auf den Inhalt. Du kannst mehr darüber in unseren Privaten und Cookie Politik lesen.